Location: Conflandey
(47.7287°N, 6.0456°E)
Time: 03:43:56
(UTC+00:00)

USA 229 DEB - Pass Details

Date: 24 October 2021
Orbit: 944 x 1268 km, 63.4° (Epoch: 25 November)

Event Time Altitude Azimuth Distance (km) Brightness Sun altitude
Rises 19:14:59 0° 234° (SW) 3,645 7.0 -28.1°
Reaches altitude 10° 19:17:31 10° 238° (WSW) 2,728 6.3 -28.5°
Maximum altitude 19:23:49 59° 318° (NW) 1,181 4.0 -29.5°
Enters shadow 19:26:54 33° 23° (NNE) 1,713 4.6 -30.0°
